User: anonymous   Login
Location: Lawrence Hall of Science
(37.8785°N, 122.2415°W)
Time: 07:57:46
(UTC-07:00)
Language:

Cosmos 2098 Rocket - Orbit

View from above orbital plane
View from above orbital plane
View from above satellite
View from above satellite

Ground track
Ground track

The orbit data is extracted from the following two-line orbital elements,

1 20775U 90078B   16242.56798379  .00003774  00000-0  18851-3 0  9991
2 20775  82.9291 286.9269 0597141 159.3821 203.2617 14.28828005307090
Epoch (UTC): 29 August 2016 13:37:53
Eccentricity: 0.0597141
inclination: 82.9291°
perigee height: 367 km
apogee height: 1224 km
right ascension of ascending node: 286.9269°
argument of perigee: 159.3821°
revolutions per day: 14.28828005
mean anomaly at epoch: 203.2617°
orbit number at epoch: 30709

The dashed part of the orbit path shows where the satellite is in the earth's shadow,  

DLR